When you browse on this site, cookies collect data to enhance your experience and personalize the content and advertising you see.
Visit our Privacy Policy to learn more. By continuing to use the site, you agree to this use of cookies and data.
  • In France
  • List of Countries
  • For 7 days
  • Water Temperature
  • Satellite Maps
  • Weather Map
  • Weather Widgets
  • user-avatar
    Login

    Hourly Weather Ali Bayramli

    Today, 18 June, Tuesday

    Time Temperature Precipitation Wind Pressure Humidity
    00:00 +29°C° 0 mm 4 mps 754 mmHg 43%
    01:00 +28°C° 0 mm 4 mps 754 mmHg 46%
    02:00 +27°C° 0 mm 3 mps 754 mmHg 49%
    03:00 +26°C° 0 mm 2 mps 754 mmHg 54%
    04:00 +26°C° 0.6 mm 2 mps 754 mmHg 57%
    05:00 +26°C° 0.6 mm 3 mps 754 mmHg 60%
    06:00 +26°C° 0.6 mm 3 mps 755 mmHg 63%
    07:00 +27°C° 0.1 mm 3 mps 755 mmHg 56%
    08:00 +29°C° 0.1 mm 3 mps 755 mmHg 49%
    09:00 +32°C° 0.1 mm 4 mps 755 mmHg 42%
    10:00 +33°C° 0 mm 3 mps 755 mmHg 38%
    11:00 +35°C° 0 mm 2 mps 754 mmHg 34%
    12:00 +35°C° 0 mm 1 mps 754 mmHg 29%
    13:00 +37°C° 0 mm 3 mps 754 mmHg 29%
    14:00 +37°C° 0 mm 4 mps 753 mmHg 29%
    15:00 +37°C° 0 mm 5 mps 753 mmHg 28%
    16:00 +38°C° 0 mm 6 mps 753 mmHg 29%
    17:00 +36°C° 0 mm 7 mps 753 mmHg 29%
    18:00 +35°C° 0 mm 7 mps 753 mmHg 30%
    19:00 +34°C° 0 mm 7 mps 753 mmHg 30%
    20:00 +33°C° 0 mm 6 mps 754 mmHg 31%
    21:00 +32°C° 0 mm 6 mps 754 mmHg 31%
    22:00 +30°C° 0 mm 5 mps 754 mmHg 35%
    23:00 +29°C° 0 mm 4 mps 754 mmHg 39%

    Tomorrow, 19 June, Wednesday

    Time Temperature Precipitation Wind Pressure Humidity
    00:00 +28°C° 0 mm 2 mps 754 mmHg 44%
    01:00 +28°C° 0 mm 3 mps 754 mmHg 47%
    02:00 +27°C° 0 mm 3 mps 754 mmHg 50%
    03:00 +26°C° 0 mm 4 mps 754 mmHg 53%
    04:00 +27°C° 0 mm 4 mps 754 mmHg 51%
    05:00 +27°C° 0 mm 4 mps 754 mmHg 50%
    06:00 +28°C° 0 mm 4 mps 754 mmHg 48%
    07:00 +30°C° 0 mm 3 mps 754 mmHg 41%
    08:00 +33°C° 0 mm 3 mps 754 mmHg 34%
    09:00 +35°C° 0 mm 3 mps 754 mmHg 27%
    10:00 +37°C° 0 mm 4 mps 754 mmHg 24%
    11:00 +39°C° 0 mm 5 mps 754 mmHg 21%
    12:00 +40°C° 0 mm 5 mps 754 mmHg 18%
    13:00 +40°C° 0 mm 6 mps 754 mmHg 18%
    14:00 +40°C° 0 mm 7 mps 753 mmHg 18%
    15:00 +40°C° 0 mm 8 mps 753 mmHg 19%
    16:00 +39°C° 0 mm 7 mps 753 mmHg 20%
    17:00 +38°C° 0 mm 7 mps 753 mmHg 21%
    18:00 +36°C° 0 mm 6 mps 753 mmHg 22%
    19:00 +35°C° 0 mm 6 mps 753 mmHg 25%
    20:00 +33°C° 0 mm 5 mps 754 mmHg 28%
    21:00 +32°C° 0 mm 4 mps 754 mmHg 31%
    22:00 +30°C° 0 mm 3 mps 754 mmHg 35%
    23:00 +29°C° 0 mm 3 mps 754 mmHg 38%

    Day after tomorrow, 20 June, Thursday

    Time Temperature Precipitation Wind Pressure Humidity
    00:00 +28°C° 0 mm 2 mps 754 mmHg 42%
    01:00 +28°C° 0 mm 2 mps 754 mmHg 44%
    02:00 +27°C° 0 mm 1 mps 754 mmHg 46%
    03:00 +26°C° 0 mm 1 mps 753 mmHg 48%
    04:00 +27°C° 0 mm 1 mps 754 mmHg 46%
    05:00 +28°C° 0 mm 1 mps 754 mmHg 44%
    06:00 +29°C° 0 mm 1 mps 754 mmHg 42%
    07:00 +30°C° 0 mm 2 mps 754 mmHg 36%
    08:00 +32°C° 0 mm 2 mps 754 mmHg 30%
    09:00 +35°C° 0 mm 2 mps 754 mmHg 23%
    10:00 +37°C° 0 mm 2 mps 754 mmHg 21%
    11:00 +38°C° 0 mm 2 mps 753 mmHg 18%
    12:00 +39°C° 0 mm 2 mps 753 mmHg 15%
    13:00 +40°C° 0 mm 4 mps 753 mmHg 16%
    14:00 +41°C° 0 mm 6 mps 753 mmHg 16%
    15:00 +41°C° 0 mm 8 mps 752 mmHg 16%
    16:00 +39°C° 0 mm 8 mps 752 mmHg 17%
    17:00 +38°C° 0 mm 7 mps 752 mmHg 18%
    18:00 +36°C° 0 mm 7 mps 752 mmHg 19%
    19:00 +35°C° 0 mm 7 mps 753 mmHg 22%
    20:00 +33°C° 0 mm 6 mps 753 mmHg 25%
    21:00 +32°C° 0 mm 6 mps 753 mmHg 29%
    22:00 +32°C° 0 mm 5 mps 753 mmHg 30%
    23:00 +30°C° 0 mm 5 mps 753 mmHg 30%

    21 June, Friday

    Time Temperature Precipitation Wind Pressure Humidity
    00:00 +29°C° 0 mm 5 mps 753 mmHg 31%
    01:00 +29°C° 0 mm 4 mps 753 mmHg 32%
    02:00 +28°C° 0 mm 4 mps 753 mmHg 33%
    03:00 +28°C° 0 mm 3 mps 753 mmHg 33%
    04:00 +28°C° 0 mm 3 mps 753 mmHg 36%
    05:00 +28°C° 0 mm 3 mps 753 mmHg 38%
    06:00 +28°C° 0 mm 2 mps 753 mmHg 41%
    07:00 +30°C° 0.1 mm 2 mps 754 mmHg 36%
    08:00 +31°C° 0.1 mm 2 mps 754 mmHg 32%
    09:00 +34°C° 0.1 mm 2 mps 754 mmHg 27%
    10:00 +35°C° 0.1 mm 3 mps 754 mmHg 25%
    11:00 +37°C° 0.1 mm 4 mps 754 mmHg 23%
    12:00 +38°C° 0.1 mm 4 mps 754 mmHg 21%
    13:00 +39°C° 0.1 mm 6 mps 754 mmHg 21%
    14:00 +39°C° 0.1 mm 8 mps 753 mmHg 22%
    15:00 +39°C° 0.1 mm 11 mps 753 mmHg 22%
    16:00 +38°C° 0.1 mm 11 mps 753 mmHg 23%
    17:00 +37°C° 0.1 mm 11 mps 753 mmHg 25%
    18:00 +36°C° 0.1 mm 11 mps 753 mmHg 26%
    19:00 +34°C° 0 mm 10 mps 754 mmHg 27%
    20:00 +34°C° 0 mm 9 mps 754 mmHg 27%
    21:00 +33°C° 0 mm 7 mps 754 mmHg 27%
    22:00 +32°C° 0 mm 6 mps 755 mmHg 31%
    23:00 +30°C° 0 mm 5 mps 755 mmHg 34%

    22 June, Saturday

    Time Temperature Precipitation Wind Pressure Humidity
    00:00 +30°C° 0 mm 4 mps 755 mmHg 37%
    01:00 +29°C° 0.1 mm 4 mps 755 mmHg 42%
    02:00 +28°C° 0.1 mm 3 mps 755 mmHg 47%
    03:00 +27°C° 0.1 mm 3 mps 755 mmHg 52%
    04:00 +27°C° 0.2 mm 3 mps 755 mmHg 50%
    05:00 +27°C° 0.2 mm 3 mps 755 mmHg 49%
    06:00 +28°C° 0.2 mm 3 mps 755 mmHg 48%
    07:00 +30°C° 0 mm 3 mps 755 mmHg 41%
    08:00 +33°C° 0 mm 3 mps 756 mmHg 34%
    09:00 +35°C° 0 mm 3 mps 756 mmHg 27%
    10:00 +36°C° 0 mm 4 mps 756 mmHg 25%
    11:00 +38°C° 0 mm 4 mps 755 mmHg 23%
    12:00 +40°C° 0 mm 5 mps 755 mmHg 21%
    13:00 +41°C° 0 mm 6 mps 755 mmHg 20%
    14:00 +41°C° 0 mm 7 mps 755 mmHg 19%
    15:00 +43°C° 0 mm 7 mps 754 mmHg 18%
    16:00 +40°C° 0 mm 8 mps 755 mmHg 20%
    17:00 +39°C° 0 mm 8 mps 755 mmHg 22%
    18:00 +37°C° 0 mm 9 mps 755 mmHg 24%
    19:00 +35°C° 0 mm 8 mps 755 mmHg 25%
    20:00 +34°C° 0 mm 8 mps 756 mmHg 26%
    21:00 +33°C° 0 mm 7 mps 756 mmHg 27%
    22:00 +33°C° 0 mm 6 mps 756 mmHg 29%
    23:00 +32°C° 0 mm 4 mps 756 mmHg 32%

    23 June, Sunday

    Time Temperature Precipitation Wind Pressure Humidity
    00:00 +30°C° 0 mm 3 mps 755 mmHg 35%
    01:00 +29°C° 0 mm 3 mps 755 mmHg 39%
    02:00 +28°C° 0 mm 3 mps 755 mmHg 43%
    03:00 +27°C° 0 mm 2 mps 755 mmHg 47%
    04:00 +28°C° 0 mm 2 mps 755 mmHg 46%
    05:00 +28°C° 0 mm 2 mps 755 mmHg 44%
    06:00 +29°C° 0 mm 2 mps 755 mmHg 43%
    07:00 +31°C° 0 mm 2 mps 755 mmHg 37%
    08:00 +34°C° 0 mm 2 mps 755 mmHg 32%
    09:00 +35°C° 0 mm 1 mps 756 mmHg 26%
    10:00 +37°C° 0 mm 2 mps 755 mmHg 24%
    11:00 +39°C° 0 mm 3 mps 755 mmHg 21%
    12:00 +40°C° 0 mm 3 mps 755 mmHg 19%
    13:00 +42°C° 0 mm 5 mps 755 mmHg 19%
    14:00 +42°C° 0 mm 6 mps 754 mmHg 19%
    15:00 +43°C° 0 mm 7 mps 754 mmHg 19%
    16:00 +41°C° 0 mm 7 mps 754 mmHg 21%
    17:00 +39°C° 0 mm 7 mps 754 mmHg 23%
    18:00 +38°C° 0 mm 8 mps 755 mmHg 25%
    19:00 +36°C° 0 mm 7 mps 755 mmHg 27%
    20:00 +35°C° 0 mm 6 mps 755 mmHg 29%
    21:00 +34°C° 0 mm 6 mps 756 mmHg 32%
    22:00 +33°C° 0 mm 5 mps 755 mmHg 33%
    23:00 +32°C° 0 mm 5 mps 755 mmHg 35%
    Show more